Location: Artiguedieu
(43.5000°N, 0.5454°E)
Time: 19:47:24
(UTC+00:00)

Explorer 7 - Pass Details

Date: 05 August 2021
Orbit: 484 x 676 km, 50.3° (Epoch: 18 September)

Event Time Altitude Azimuth Distance (km) Brightness Sun altitude
Rises 07:11:45 0° 295° (WNW) 2,600 9.8 23.7°
Reaches altitude 10° 07:14:02 10° 305° (NW) 1,737 9.0 24.2°
Maximum altitude 07:17:41 35° 13° (NNE) 871 8.2 24.8°
Drops below altitude 10° 07:21:31 10° 80° (E) 1,831 11.2 25.5°
Sets 07:23:59 0° 89° (E) 2,763 11.8 26.0°
